Flag for U.S.A. Weather past 2 weeks in St. Croix Falls, Wisconsin, U.S.A.

Now
38 °F

Clear.


Feels Like: 33 °F
Forecast: 35 / 51 °F
Wind: 8 mph from Southeast

Location: L O Simenstad Municipal Airport


UV Index: 0 (Low)

Visibility: 10 mi


Pressure: 30.13 "Hg

Humidity: 65%

Dew point: 28 °F

Location of St. Croix FallsLocation

Historic Weather in St. Croix Falls

°F

St. Croix Falls temperature yesterday

Maximum temperature yesterday: 57 °F (at 4:55 PM)
Minimum temperature yesterday: 35 °F (at 11:55 PM)
Average temperature yesterday: 44 °F

Past Weeks' High & Low Weather Summary

 TemperatureHumidityPressure
High74 °F (Apr 20, 3:55 PM)100% (Apr 16, 6:35 PM)30.41 "Hg (Apr 16, 6:35 PM)
Low19 °F (Apr 18, 4:15 AM)21% (Apr 10, 4:15 PM)29.49 "Hg (Apr 9, 10:15 PM)
Average43 °F65%30.01 "Hg
* Reported Apr 8 2:15 AM — Apr 23 2:55 AM, St. Croix Falls, Weather by CustomWeather, © 2014

Note: Actual official high and low records may vary slightly from our data, if they occured in-between our weather recording intervals... More about our weather records

Advertising

Historic Weather Conditions — Data for Previous 24 hours

 ConditionsComfort  
Time TempWeatherWind HumidityBarometerVisibility
2:55 AM
Apr 23
39 °FClear.9 mph63%30.13 "Hg10 mi
2:35 AM39 °FClear.9 mph63%30.13 "Hg10 mi
2:15 AM40 °FClear.9 mph57%30.12 "Hg10 mi
1:55 AM39 °FClear.8 mph62%30.12 "Hg10 mi
1:35 AM40 °FClear.5 mph59%30.13 "Hg10 mi
1:15 AM36 °FClear.7 mph69%30.12 "Hg10 mi
12:55 AM40 °FClear.6 mph58%30.13 "Hg10 mi
12:35 AM38 °FClear.7 mph64%30.13 "Hg10 mi
12:15 AM36 °FClear.6 mph70%30.13 "Hg10 mi
11:55 PM
Apr 22
35 °FClear.3 mph73%30.12 "Hg10 mi
11:35 PM36 °FClear.5 mph72%30.12 "Hg10 mi
11:15 PM35 °FClear.No wind70%30.12 "Hg10 mi
10:55 PM36 °FClear.No wind69%30.12 "Hg10 mi
10:15 PM39 °FClear.No wind65%30.12 "Hg10 mi
9:55 PM39 °FClear.No wind69%30.12 "Hg10 mi
9:35 PM42 °FClear.No wind55%30.12 "Hg10 mi
9:15 PM44 °FClear.No wind53%30.12 "Hg10 mi
8:55 PM45 °FSunny.No wind46%30.10 "Hg10 mi
8:15 PM50 °FSunny.No wind33%30.09 "Hg10 mi
7:55 PM51 °FSunny.No wind33%30.08 "Hg10 mi
7:35 PM52 °FSunny.5 mph33%30.07 "Hg10 mi
7:15 PM53 °FSunny.5 mph28%30.07 "Hg10 mi
6:55 PM54 °FSunny.8 mph28%30.07 "Hg10 mi
6:35 PM55 °FSunny.8 mph28%30.07 "Hg10 mi
6:15 PM54 °FSunny.7 mph30%30.08 "Hg10 mi
5:55 PM55 °FSunny.8 mph29%30.08 "Hg10 mi
5:35 PM56 °FSunny.8 mph29%30.07 "Hg10 mi
5:15 PM56 °FSunny.5 mph30%30.07 "Hg10 mi
4:55 PM57 °FSunny.8 mph29%30.08 "Hg10 mi
4:15 PM56 °FSunny.8 mph30%30.09 "Hg10 mi
3:55 PM56 °FSunny.9 mph31%30.09 "Hg10 mi
3:35 PM55 °FSunny.12 mph31%30.10 "Hg10 mi
3:15 PM55 °FSunny.10 mph34%30.10 "Hg10 mi
2:55 PM55 °FSunny.15 mph36%30.11 "Hg10 mi
2:35 PM54 °FSunny.15 mph36%30.12 "Hg10 mi
2:15 PM53 °FSunny.14 mph38%30.12 "Hg10 mi
1:55 PM53 °FSunny.15 mph40%30.13 "Hg10 mi
1:35 PM53 °FSunny.14 mph41%30.13 "Hg10 mi
1:15 PM52 °FSunny.16 mph41%30.13 "Hg10 mi
12:55 PM51 °FSunny.17 mph42%30.13 "Hg10 mi
12:35 PM51 °FSunny.15 mph43%30.13 "Hg10 mi
12:15 PM49 °FSunny.16 mph44%30.14 "Hg10 mi
11:55 AM49 °FSunny.16 mph45%30.15 "Hg10 mi
11:35 AM48 °FSunny.16 mph48%30.15 "Hg10 mi
11:15 AM47 °FSunny.15 mph50%30.15 "Hg10 mi
10:55 AM46 °FSunny.16 mph49%30.15 "Hg10 mi
10:35 AM45 °FSunny.15 mph52%30.15 "Hg10 mi
10:15 AM45 °FSunny.13 mph52%30.15 "Hg10 mi
9:55 AM44 °FSunny.13 mph55%30.16 "Hg10 mi
9:35 AM42 °FSunny.15 mph56%30.15 "Hg10 mi
9:15 AM42 °FSunny.12 mph60%30.15 "Hg10 mi
8:55 AM41 °FSunny.8 mph61%30.15 "Hg10 mi
8:15 AM39 °FSunny.6 mph68%30.14 "Hg10 mi
7:55 AM38 °FSunny.10 mph70%30.14 "Hg10 mi
7:35 AM36 °FSunny.6 mph73%30.15 "Hg10 mi
7:15 AM36 °FSunny.6 mph73%30.14 "Hg10 mi
6:55 AM35 °FClear.6 mph74%30.14 "Hg10 mi
6:35 AM35 °FClear.5 mph74%30.13 "Hg10 mi
6:15 AM35 °FClear.3 mph74%30.13 "Hg10 mi
5:55 AM36 °FClear.5 mph73%30.13 "Hg10 mi
5:35 AM36 °FClear.5 mph73%30.12 "Hg10 mi
5:15 AM36 °FClear.7 mph75%30.13 "Hg10 mi
4:55 AM36 °FClear.7 mph77%30.12 "Hg10 mi
4:35 AM36 °FClear.7 mph75%30.12 "Hg10 mi
4:15 AM36 °FClear.5 mph75%30.12 "Hg10 mi
3:55 AM36 °FClear.3 mph75%30.12 "Hg10 mi
3:35 AM36 °FClear.3 mph77%30.12 "Hg10 mi
3:15 AM37 °FClear.5 mph74%30.12 "Hg10 mi
Weather by CustomWeather, © 2014

See weather overview